YAOGAN-30 J (43083 NORAD) Tracking and Keplerian Element Data

This shows tracking and keplerian element data for the satellite.

Feedback or suggestion? Click here.




ElementValue
Catalog43083
NameYAOGAN-30 J
Epoch Orbit433
Epoch Day23.84336206
Epoch Year2018
RAAN192.9288
Inclination34.995
Eccentricity0.0005692
Argument of Perigee325.1043
Mean Anonmoly34.9286
Mean Motion14.89459557
Decay Rate9.9E-07
L11 43083U 17085C 18023.84336206 .00000099 00000-0 13025-4 0 9998
L22 43083 34.9950 192.9288 0005692 325.1043 34.9286 14.89459557 4338

Live tracking and technical data element details for YAOGAN-30 J (NORAD 43083). YAOGAN-30 J can be tracked NOW for your location showing map with azimuth and elevation plus other details from your city location.

Track the satellite on the map from your city or location and see movement details for azimuth, elevation, latitude, longitude, range, height, and movement on the map or in text.







IsCatalogInMostPopularTable: catalog: 43083, numindb: 145
Update: records affected: 1



GetName: 43083 YAOGAN-30 J

Hit Count: updated at: Mon, 12 Nov 2018 17:54:24 GMT